• In Netherlands
  • List of Countries
  • For 7 days
  • Water Temperature
  • Satellite Maps
  • Weather Map
  • Weather Widgets
  • user-avatar
    Login

    Hourly Weather Ischgl

    Today, 13 December, Wednesday

    Time Temperature Precipitation Wind Pressure Humidity
    00:00 -13°C° 0.2 mm 1 mps 567 mmHg 93%
    01:00 -14°C° 0 mm 1 mps 566 mmHg 95%
    02:00 -15°C° 0 mm 1 mps 566 mmHg 94%
    03:00 -15°C° 0 mm 1 mps 566 mmHg 93%
    04:00 -16°C° 0 mm 1 mps 565 mmHg 92%
    05:00 -16°C° 0 mm 1 mps 565 mmHg 88%
    06:00 -18°C° 0 mm 2 mps 565 mmHg 85%
    07:00 -19°C° 0 mm 2 mps 565 mmHg 81%
    08:00 -17°C° 0 mm 2 mps 566 mmHg 78%
    09:00 -13°C° 0 mm 1 mps 567 mmHg 74%
    10:00 -12°C° 0 mm 1 mps 567 mmHg 71%
    11:00 -12°C° 0 mm 2 mps 568 mmHg 70%
    12:00 -10°C° 0 mm 2 mps 568 mmHg 70%
    13:00 -8°C° 0 mm 2 mps 568 mmHg 69%
    14:00 -9°C° 0 mm 2 mps 567 mmHg 73%
    15:00 -10°C° 0 mm 3 mps 567 mmHg 76%
    16:00 -12°C° 0 mm 3 mps 566 mmHg 79%
    17:00 -13°C° 0 mm 3 mps 565 mmHg 79%
    18:00 -13°C° 0 mm 3 mps 565 mmHg 79%
    19:00 -13°C° 0 mm 3 mps 565 mmHg 79%
    20:00 -14°C° 0 mm 3 mps 564 mmHg 77%
    21:00 -15°C° 0 mm 4 mps 564 mmHg 75%
    22:00 -15°C° 0 mm 4 mps 563 mmHg 73%
    23:00 -14°C° 0.1 mm 4 mps 563 mmHg 74%

    Tomorrow, 14 December, Thursday

    Time Temperature Precipitation Wind Pressure Humidity
    00:00 -12°C° 0.1 mm 4 mps 563 mmHg 75%
    01:00 -13°C° 0.1 mm 5 mps 563 mmHg 77%
    02:00 -11°C° 0.3 mm 4 mps 563 mmHg 79%
    03:00 -11°C° 0.3 mm 4 mps 563 mmHg 81%
    04:00 -11°C° 0.3 mm 4 mps 563 mmHg 84%
    05:00 -11°C° 0.3 mm 4 mps 563 mmHg 85%
    06:00 -10°C° 0.3 mm 3 mps 563 mmHg 86%
    07:00 -10°C° 0.3 mm 3 mps 563 mmHg 88%
    08:00 -9°C° 0.4 mm 3 mps 564 mmHg 88%
    09:00 -9°C° 0.4 mm 3 mps 564 mmHg 88%
    10:00 -8°C° 0.4 mm 3 mps 565 mmHg 88%
    11:00 -7°C° 0.6 mm 2 mps 565 mmHg 88%
    12:00 -7°C° 0.6 mm 2 mps 565 mmHg 87%
    13:00 -6°C° 0.6 mm 2 mps 564 mmHg 87%
    14:00 -7°C° 0.5 mm 2 mps 564 mmHg 88%
    15:00 -7°C° 0.5 mm 2 mps 563 mmHg 90%
    16:00 -8°C° 0.5 mm 2 mps 563 mmHg 91%
    17:00 -9°C° 0.2 mm 2 mps 562 mmHg 89%
    18:00 -12°C° 0.2 mm 3 mps 561 mmHg 87%
    19:00 -12°C° 0.2 mm 3 mps 561 mmHg 86%
    20:00 -12°C° 0 mm 3 mps 560 mmHg 83%
    21:00 -12°C° 0 mm 4 mps 560 mmHg 81%
    22:00 -12°C° 0 mm 4 mps 560 mmHg 79%
    23:00 -12°C° 0.1 mm 4 mps 559 mmHg 81%

    Day after tomorrow, 15 December, Friday

    Time Temperature Precipitation Wind Pressure Humidity
    00:00 -12°C° 0.1 mm 4 mps 559 mmHg 82%
    01:00 -12°C° 0.1 mm 4 mps 559 mmHg 84%
    02:00 -12°C° 0.6 mm 4 mps 559 mmHg 87%
    03:00 -12°C° 0.6 mm 3 mps 559 mmHg 89%
    04:00 -10°C° 0.6 mm 3 mps 559 mmHg 91%
    05:00 -10°C° 1 mm 3 mps 559 mmHg 93%
    06:00 -9°C° 1 mm 2 mps 560 mmHg 94%
    07:00 -9°C° 1 mm 2 mps 560 mmHg 95%
    08:00 -9°C° 0.5 mm 2 mps 560 mmHg 95%
    09:00 -9°C° 0.5 mm 2 mps 560 mmHg 94%
    10:00 -9°C° 0.5 mm 1 mps 560 mmHg 94%
    11:00 -8°C° 0.3 mm 1 mps 560 mmHg 92%
    12:00 -8°C° 0.3 mm 1 mps 560 mmHg 90%
    13:00 -8°C° 0.3 mm 1 mps 559 mmHg 89%
    14:00 -9°C° 0.4 mm 2 mps 559 mmHg 90%
    15:00 -10°C° 0.4 mm 2 mps 559 mmHg 92%
    16:00 -10°C° 0.4 mm 2 mps 559 mmHg 94%
    17:00 -12°C° 0.3 mm 2 mps 558 mmHg 94%
    18:00 -13°C° 0.3 mm 2 mps 558 mmHg 94%
    19:00 -13°C° 0.3 mm 2 mps 558 mmHg 93%
    20:00 -14°C° 0.1 mm 2 mps 558 mmHg 91%
    21:00 -15°C° 0.1 mm 2 mps 558 mmHg 89%
    22:00 -15°C° 0.1 mm 2 mps 557 mmHg 87%
    23:00 -16°C° 0 mm 2 mps 558 mmHg 85%

    16 December, Saturday

    Time Temperature Precipitation Wind Pressure Humidity
    00:00 -16°C° 0 mm 2 mps 558 mmHg 82%
    01:00 -16°C° 0 mm 2 mps 558 mmHg 80%
    02:00 -16°C° 0.2 mm 2 mps 558 mmHg 82%
    03:00 -16°C° 0.2 mm 2 mps 558 mmHg 84%
    04:00 -16°C° 0.2 mm 2 mps 559 mmHg 86%
    05:00 -16°C° 0.4 mm 2 mps 559 mmHg 88%
    06:00 -15°C° 0.4 mm 2 mps 560 mmHg 91%
    07:00 -15°C° 0.4 mm 2 mps 561 mmHg 93%
    08:00 -14°C° 0.4 mm 2 mps 561 mmHg 93%
    09:00 -14°C° 0.4 mm 2 mps 562 mmHg 92%
    10:00 -13°C° 0.4 mm 2 mps 563 mmHg 91%
    11:00 -13°C° 0.2 mm 2 mps 563 mmHg 89%
    12:00 -13°C° 0.2 mm 2 mps 564 mmHg 87%
    13:00 -12°C° 0.2 mm 2 mps 564 mmHg 85%
    14:00 -13°C° 0.2 mm 2 mps 564 mmHg 87%
    15:00 -13°C° 0.2 mm 2 mps 564 mmHg 90%
    16:00 -14°C° 0.2 mm 2 mps 564 mmHg 93%
    17:00 -14°C° 0.2 mm 2 mps 564 mmHg 94%
    18:00 -15°C° 0.2 mm 2 mps 565 mmHg 94%
    19:00 -16°C° 0.2 mm 2 mps 565 mmHg 95%
    20:00 -16°C° 0.1 mm 2 mps 565 mmHg 95%
    21:00 -17°C° 0.1 mm 2 mps 566 mmHg 95%
    22:00 -17°C° 0.1 mm 2 mps 566 mmHg 95%
    23:00 -18°C° 0 mm 2 mps 566 mmHg 95%

    17 December, Sunday

    Time Temperature Precipitation Wind Pressure Humidity
    00:00 -19°C° 0 mm 2 mps 566 mmHg 95%
    01:00 -19°C° 0 mm 2 mps 565 mmHg 94%
    02:00 -20°C° 0 mm 2 mps 566 mmHg 94%
    03:00 -20°C° 0 mm 2 mps 566 mmHg 93%
    04:00 -21°C° 0 mm 2 mps 566 mmHg 93%
    05:00 -20°C° 0.1 mm 2 mps 566 mmHg 92%
    06:00 -20°C° 0.1 mm 2 mps 567 mmHg 91%
    07:00 -20°C° 0.1 mm 2 mps 567 mmHg 91%
    08:00 -18°C° 0.1 mm 2 mps 568 mmHg 90%
    09:00 -17°C° 0.1 mm 2 mps 569 mmHg 89%
    10:00 -16°C° 0.1 mm 2 mps 570 mmHg 89%
    11:00 -16°C° 0.1 mm 2 mps 571 mmHg 88%
    12:00 -15°C° 0.1 mm 2 mps 571 mmHg 86%
    13:00 -14°C° 0.1 mm 2 mps 571 mmHg 85%
    14:00 -15°C° 0 mm 2 mps 571 mmHg 88%
    15:00 -16°C° 0 mm 2 mps 571 mmHg 90%
    16:00 -16°C° 0 mm 2 mps 571 mmHg 93%
    17:00 -17°C° 0 mm 2 mps 571 mmHg 93%
    18:00 -16°C° 0 mm 1 mps 571 mmHg 94%
    19:00 -17°C° 0 mm 1 mps 571 mmHg 94%
    20:00 -18°C° 0 mm 1 mps 571 mmHg 94%
    21:00 -18°C° 0 mm 1 mps 571 mmHg 93%
    22:00 -20°C° 0 mm 2 mps 571 mmHg 92%
    23:00 -21°C° 0 mm 2 mps 571 mmHg 92%

    18 December, Monday

    Time Temperature Precipitation Wind Pressure Humidity
    00:00 -21°C° 0 mm 2 mps 571 mmHg 91%
    01:00 -21°C° 0 mm 2 mps 571 mmHg 90%
    02:00 -21°C° 0 mm 2 mps 571 mmHg 89%
    03:00 -21°C° 0 mm 2 mps 571 mmHg 88%
    04:00 -21°C° 0 mm 2 mps 571 mmHg 87%
    05:00 -21°C° 0 mm 2 mps 571 mmHg 86%
    06:00 -20°C° 0 mm 2 mps 571 mmHg 85%
    07:00 -19°C° 0 mm 2 mps 572 mmHg 84%
    08:00 -18°C° 0.1 mm 2 mps 572 mmHg 84%
    09:00 -16°C° 0.1 mm 2 mps 573 mmHg 85%
    10:00 -14°C° 0.1 mm 2 mps 573 mmHg 85%
    11:00 -13°C° 0.1 mm 2 mps 573 mmHg 85%
    12:00 -12°C° 0.1 mm 2 mps 573 mmHg 84%
    13:00 -10°C° 0.1 mm 2 mps 573 mmHg 84%
    14:00 -10°C° 0.3 mm 2 mps 573 mmHg 87%
    15:00 -9°C° 0.3 mm 1 mps 572 mmHg 90%
    16:00 -9°C° 0.3 mm 1 mps 572 mmHg 92%
    17:00 -9°C° 0.7 mm 1 mps 572 mmHg 93%
    18:00 -10°C° 0.7 mm 2 mps 572 mmHg 93%
    19:00 -12°C° 0.7 mm 2 mps 572 mmHg 94%
    20:00 -12°C° 0.4 mm 2 mps 572 mmHg 94%
    21:00 -12°C° 0.4 mm 2 mps 572 mmHg 94%
    22:00 -12°C° 0.4 mm 2 mps 572 mmHg 94%
    23:00 -12°C° 0.3 mm 2 mps 572 mmHg 94%
    Show more